Springfield, VT

11:56 AM EDT on September 23, 2017 (GMT -0400)
Hartness State

Weather History for KVSF - October, 2012

Change the Weather History Date:

Saturday, October 20, 2012

  Actual Average Record
Temperature  
Mean Temperature 58 °F 46 °F  
Max Temperature 73 °F 57 °F 73 °F (2012)
Min Temperature 42 °F 34 °F 21 °F (2008)
Degree Days  
Heating Degree Days 7 19  
Month to date heating degree days 258 325  
Since 1 July heating degree days 444 577  
Cooling Degree Days 0 0  
Month to date cooling degree days 1 0  
Year to date cooling degree days 640 344  
Growing Degree Days 10 (Base 50)    
Moisture  
Dew Point 54 °F    
Average Humidity 67    
Maximum Humidity 100    
Minimum Humidity 33    
Precipitation  
Precipitation T in 0.15 in 1.52 in (1996)
Month to date precipitation 2.64 3.07  
Year to date precipitation 28.63 35.20  
Sea Level Pressure  
Sea Level Pressure 29.68 in    
Wind  
Wind Speed 2 mph (WSW)    
Max Wind Speed 7 mph    
Max Gust Speed -    
Visibility 5 miles    
Events Fog , Rain    
T = Trace of Precipitation, MM = Missing Value Source: NWS Daily Summary

Daily Weather History Graph

Daily Weather History Graph

Search for Another Location

Airport or City:

Trip Planner

Search our weather history database for the weather conditions in past years. The results will help you decide how hot, cold, wet, or windy it might be!

Date:

Astronomy

Oct. 20, 2012 Rise Set
Actual Time 7:10 AM EDT 5:58 PM EDT
Civil Twilight 6:41 AM EDT 6:27 PM EDT
Nautical Twilight 6:08 AM EDT 7:00 PM EDT
Astronomical Twilight 5:35 AM EDT 7:33 PM EDT
Moon 12:49 PM EDT (10/20) 10:36 PM EDT (10/20)
Length of Visible Light 11h 45m
Length of Day
10h 47m
Waxing Crescent, 34% of the Moon is Illuminated
Oct 20
Waxing Crescent
Oct 21
First Quarter
Oct 29
Full
Nov 6
Last Quarter
Nov 13
New

Hourly Weather History & Observations

Time (EDT) Temp. Dew Point Humidity Pressure Visibility Wind Dir Wind Speed Gust Speed Precip Events Conditions
12:27 AM 60.8 °F 57.2 °F 88% 29.71 in 2.0 mi Calm Calm - 0.01 in Rain Light Rain
12:39 AM 60.8 °F 57.2 °F 88% 29.71 in 3.0 mi Calm Calm - 0.01 in   Overcast
12:54 AM 60.1 °F 57.9 °F 93% 29.71 in 5.0 mi Calm Calm - 0.01 in   Overcast
1:23 AM 60.8 °F 57.2 °F 88% 29.69 in 1.8 mi Calm Calm - N/A   Overcast
1:34 AM 59.0 °F 57.2 °F 94% 29.70 in 4.0 mi Calm Calm - N/A   Overcast
1:46 AM 59.0 °F 57.2 °F 94% 29.69 in 7.0 mi Calm Calm - N/A   Overcast
1:54 AM 60.1 °F 57.9 °F 93% 29.70 in 10.0 mi Calm Calm - N/A   Overcast
2:31 AM 60.8 °F 59.0 °F 94% 29.68 in 10.0 mi NW 3.5 mph - N/A   Overcast
2:54 AM 60.1 °F 57.0 °F 90% 29.68 in 8.0 mi Calm Calm - 0.00 in Rain Light Rain
3:04 AM 60.8 °F 57.2 °F 88% 29.67 in 10.0 mi Calm Calm - 0.00 in   Overcast
3:40 AM 59.0 °F 57.2 °F 94% 29.67 in 1.8 mi Calm Calm - 0.00 in   Mostly Cloudy
3:54 AM 60.1 °F 57.9 °F 93% 29.68 in 1.5 mi Calm Calm - 0.00 in   Overcast
4:02 AM 59.0 °F 57.2 °F 94% 29.69 in 1.0 mi Calm Calm - N/A   Overcast
4:09 AM 59.0 °F 57.2 °F 94% 29.69 in 3.0 mi Calm Calm - N/A   Overcast
4:21 AM 59.0 °F 57.2 °F 94% 29.69 in 2.0 mi Calm Calm - N/A   Mostly Cloudy
4:23 AM 59.0 °F 57.2 °F 94% 29.69 in 1.2 mi Calm Calm - N/A   Mostly Cloudy
4:31 AM 57.2 °F 55.4 °F 94% 29.69 in 0.5 mi Calm Calm - N/A Fog Fog
4:40 AM 57.2 °F 55.4 °F 94% 29.69 in 0.2 mi Calm Calm - N/A Fog Fog
4:54 AM 57.9 °F 55.9 °F 93% 29.69 in 0.2 mi Calm Calm - N/A Fog Fog
5:07 AM 59.0 °F 57.2 °F 94% 29.69 in 1.0 mi Calm Calm - N/A   Mist
5:12 AM 57.2 °F 55.4 °F 94% 29.69 in 3.0 mi Calm Calm - N/A   Mostly Cloudy
5:22 AM 60.8 °F 57.2 °F 88% 29.69 in 10.0 mi Calm Calm - N/A   Mostly Cloudy
5:54 AM 62.1 °F 60.1 °F 93% 29.68 in 10.0 mi SSE 5.8 mph - N/A   Partly Cloudy
6:46 AM 59.0 °F 57.2 °F 94% 29.66 in 2.5 mi NNW 4.6 mph - N/A   Scattered Clouds
6:54 AM 57.9 °F 55.9 °F 93% 29.66 in 1.0 mi Calm Calm - N/A   Scattered Clouds
7:29 AM 60.8 °F 57.2 °F 88% 29.67 in 2.5 mi Calm Calm - N/A   Overcast
7:35 AM 55.4 °F 53.6 °F 94% 29.67 in 0.8 mi Calm Calm - N/A   Overcast
7:41 AM 57.2 °F 55.4 °F 94% 29.67 in 0.5 mi Variable 4.6 mph - N/A Fog Fog
7:49 AM 57.2 °F 57.2 °F 100% 29.67 in 2.0 mi Calm Calm - N/A   Mostly Cloudy
7:52 AM 57.2 °F 55.4 °F 94% 29.67 in 0.8 mi Calm Calm - N/A   Mostly Cloudy
7:54 AM 57.0 °F 55.0 °F 93% 29.67 in 0.5 mi Calm Calm - N/A Fog Fog
8:01 AM 57.2 °F 55.4 °F 94% 29.67 in 0.2 mi Calm Calm - N/A Fog Fog
8:22 AM 55.4 °F 55.4 °F 100% 29.66 in 0.2 mi Calm Calm - N/A Fog Fog
8:54 AM 60.1 °F 57.9 °F 93% 29.68 in 0.2 mi Calm Calm - N/A Fog Fog
9:26 AM 62.6 °F 59.0 °F 88% 29.67 in 1.0 mi Calm Calm - N/A   Mist
9:29 AM 62.6 °F 60.8 °F 94% 29.67 in 4.0 mi Calm Calm - N/A   Mostly Cloudy
9:41 AM 62.6 °F 60.8 °F 94% 29.67 in 9.0 mi Calm Calm - N/A   Scattered Clouds
9:54 AM 63.0 °F 61.0 °F 93% 29.68 in 9.0 mi Calm Calm - N/A   Scattered Clouds
10:54 AM 64.9 °F 57.9 °F 78% 29.66 in 10.0 mi Calm Calm - N/A   Clear
11:54 AM 66.9 °F 57.0 °F 70% 29.66 in 10.0 mi Calm Calm - N/A   Partly Cloudy
12:54 PM 69.1 °F 55.0 °F 61% 29.62 in 10.0 mi SE 4.6 mph - N/A   Partly Cloudy
1:55 PM 73.0 °F 46.0 °F 38% 29.60 in - West 4.6 mph - N/A   Unknown
2:54 PM 73.0 °F 45.0 °F 37% 29.59 in 10.0 mi SW 6.9 mph - N/A   Clear
3:54 PM 70.0 °F 48.9 °F 47% 29.59 in 10.0 mi Calm Calm - N/A   Mostly Cloudy
4:54 PM 70.0 °F 39.9 °F 33% 29.61 in 10.0 mi SSW 5.8 mph - N/A   Mostly Cloudy
5:54 PM 64.0 °F 44.1 °F 48% 29.64 in 10.0 mi West 4.6 mph - N/A   Clear
6:54 PM 59.0 °F 45.0 °F 60% 29.67 in 10.0 mi West 4.6 mph - N/A   Clear
7:54 PM 57.9 °F 44.1 °F 60% 29.69 in 10.0 mi WSW 5.8 mph - N/A   Clear
8:54 PM 54.0 °F 43.0 °F 66% 29.72 in 10.0 mi Calm Calm - N/A   Clear
9:54 PM 48.9 °F 43.0 °F 80% 29.73 in 10.0 mi Calm Calm - N/A   Clear
10:54 PM 46.9 °F 42.1 °F 83% 29.75 in 10.0 mi Calm Calm - N/A   Unknown
11:54 PM 44.1 °F 41.0 °F 89% 29.75 in 10.0 mi Calm Calm - N/A   Partly Cloudy